datetime,storage
1951-04-01,2092.0
1951-04-02,2165.0
1951-04-03,2516.0
1951-04-04,2483.0
1951-04-05,2465.0
1951-04-06,2347.0
1951-04-07,2425.0
1951-04-08,2540.0
1951-04-09,2455.0
1951-04-10,2550.0
1951-04-11,2350.0
1951-04-12,2308.0
1951-04-13,2331.0
1951-04-14,2387.0
1951-04-15,2460.0
1951-04-16,2464.0
1951-04-17,2530.0
1951-04-18,2422.0
1951-04-19,2464.0
1951-04-20,2443.0
1951-04-21,2512.0
1951-04-22,2490.0
1951-04-23,2489.0
1951-04-24,2472.0
1951-04-25,2472.0
1951-04-26,2399.0
1951-04-27,2483.0
1951-04-28,2462.0
1951-04-29,2408.0
1951-04-30,2253.0
1951-05-01,2329.0
1951-05-02,2328.0
1951-05-03,2422.0
1951-05-04,2404.0
1951-05-05,2605.0
1951-05-06,2498.0
1951-05-07,2478.0
1951-05-08,2422.0
1951-05-09,2467.0
1951-05-10,2331.0
1951-05-11,2348.0
1951-05-12,2296.0
1951-05-13,2394.0
1951-05-14,2315.0
1951-05-15,2478.0
1951-05-16,2483.0
1951-05-17,2459.0
1951-05-18,2594.0
1951-05-19,2538.0
1951-05-20,2307.0
1951-05-21,2273.0
1951-05-22,2432.0
1951-05-23,2389.0
1951-05-24,2383.0
1951-05-25,2576.0
1951-05-26,2612.0
1951-05-27,2592.0
1951-05-28,2368.0
1951-05-29,2291.0
1951-05-30,2340.0
1951-05-31,2396.0
1951-06-01,2474.0
1951-06-02,2338.0
1951-06-03,2324.0
1951-06-04,2310.0
1951-06-05,2219.0
1951-06-06,2269.0
1951-06-07,2323.0
1951-06-08,2390.0
1951-06-09,2295.0
1951-06-10,2290.0
1951-06-11,2321.0
1951-06-12,2314.0
1951-06-13,2288.0
1951-06-14,2347.0
1951-06-15,2501.0
1951-06-16,2303.0
1951-06-17,2279.0
1951-06-18,2312.0
1951-06-19,2293.0
1951-06-20,2244.0
1951-06-21,2212.0
1951-06-22,2246.0
1951-06-23,2290.0
1951-06-24,2364.0
1951-06-25,2394.0
1951-06-26,2422.0
1951-06-27,2362.0
1951-06-28,2167.0
1951-06-29,2266.0
1951-06-30,2315.0
1951-07-01,2347.0
1951-07-02,2424.0
1951-07-03,2452.0
1951-07-04,2471.0
1951-07-05,2452.0
1951-07-06,2317.0
1951-07-07,2296.0
1951-07-08,2397.0
1951-07-09,2450.0
1951-07-10,2505.0
1951-07-11,2543.0
1951-07-12,2527.0
1951-07-13,2521.0
1951-07-14,2608.0
1951-07-15,2331.0
1951-07-16,2583.0
1951-07-17,2616.0
1951-07-18,2596.0
1951-07-19,2478.0
1951-07-20,2434.0
1951-07-21,2505.0
1951-07-22,2324.0
1951-07-23,2361.0
1951-07-24,2406.0
1951-07-25,2285.0
1951-07-26,2452.0
1951-07-27,2518.0
1951-07-28,2352.0
1951-07-29,2244.0
1951-07-30,2542.0
1951-07-31,2450.0
1951-08-01,2364.0
1951-08-02,2518.0
1951-08-03,2540.0
1951-08-04,2523.0
1951-08-05,2550.0
1951-08-06,2552.0
1951-08-07,2550.0
1951-08-08,2540.0
1951-08-09,2554.0
1951-08-10,2541.0
1951-08-11,2547.0
1951-08-12,2548.0
1951-08-13,2530.0
1951-08-14,2545.0
1951-08-15,2357.0
1951-08-16,2057.0
1951-08-17,1976.0
1951-08-18,1977.0
1951-08-19,2008.0
1951-08-20,2190.0
1951-08-21,2244.0
1951-08-22,2244.0
1951-08-23,2273.0
1951-08-24,2282.0
1951-08-25,2301.0
1951-08-26,2306.0
1951-08-27,2344.0
1951-08-28,2363.0
1951-08-29,2351.0
1951-08-30,2303.0
1951-08-31,2315.0
1951-09-01,2334.0
1951-09-02,2351.0
1951-09-03,2358.0
1951-09-04,2393.0
1951-09-05,2398.0
1951-09-06,2303.0
1951-09-07,2325.0
1951-09-08,2350.0
1951-09-09,2391.0
1951-09-10,2428.0
1951-09-11,2446.0
1951-09-12,2467.0
1951-09-13,2589.0
1951-09-14,2589.0
1951-09-15,2421.0
1951-09-16,2260.0
1951-09-17,2331.0
1951-09-18,2451.0
1951-09-19,2505.0
1951-09-20,2550.0
1951-09-21,2595.0
1951-09-22,2428.0
1951-09-23,2245.0
1951-09-24,2282.0
1951-09-25,2329.0
1951-09-26,2276.0
1951-09-27,2402.0
1951-09-28,2487.0
1951-09-29,2442.0
1951-09-30,2264.0
1951-10-01,2357.0
1951-10-02,2435.0
1951-10-03,2505.0
1951-10-04,2564.0
1951-10-05,2600.0
1951-10-06,2506.0
1951-10-07,2411.0
1951-10-08,2398.0
1951-10-09,2455.0
1951-10-10,2533.0
1951-10-11,2487.0
1951-10-12,2426.0
1951-10-13,2427.0
1951-10-14,2351.0
1951-10-15,2339.0
1951-10-16,2376.0
1951-10-17,2412.0
1951-10-18,2485.0
1951-10-19,2548.0
1951-10-20,2635.0
1951-10-21,2521.0
1951-10-22,2517.0
1951-10-23,2599.0
1951-10-24,2573.0
1951-10-25,2599.0
1951-10-26,2624.0
1951-10-27,2487.0
1951-10-28,2310.0
1951-10-29,2267.0
1951-10-30,2262.0
1951-10-31,2303.0
1951-11-01,2455.0
1951-11-02,2487.0
1951-11-03,2442.0
1951-11-04,2421.0
1951-11-05,2560.0
1951-11-06,2597.0
1951-11-07,2559.0
1951-11-08,2573.0
1951-11-09,2490.0
1951-11-10,2348.0
1951-11-11,2206.0
1951-11-12,2276.0
1951-11-13,2386.0
1951-11-14,2439.0
1951-11-15,2315.0
1951-11-16,2421.0
1951-11-17,2357.0
1951-11-18,2279.0
1951-11-19,2383.0
1951-11-20,2455.0
1951-11-21,2404.0
1951-11-22,2332.0
1951-11-23,2391.0
1951-11-24,2390.0
1951-11-25,2245.0
1951-11-26,2348.0
1951-11-27,2426.0
1951-11-28,2471.0
1951-11-29,2530.0
1951-11-30,2571.0
1951-12-01,2555.0
1951-12-02,2508.0
1951-12-03,2524.0
1951-12-04,2506.0
1951-12-05,2488.0
1951-12-06,2503.0
1951-12-07,2510.0
1951-12-08,2405.0
1951-12-09,2265.0
1951-12-10,2310.0
1951-12-11,2276.0
1951-12-12,2176.0
1951-12-13,2057.0
1951-12-14,2153.0
1951-12-15,2052.0
1951-12-16,1984.0
1951-12-17,1958.0
1951-12-18,1772.0
1951-12-19,1534.0
1951-12-20,1365.0
1951-12-21,1193.0
1951-12-22,1031.0
1951-12-23,872.0
1951-12-24,963.0
1951-12-25,790.0
1951-12-26,836.0
1951-12-27,980.0
1951-12-28,1088.0
1951-12-29,1168.0
1951-12-30,1317.0
1951-12-31,1298.0
1952-01-01,1130.0
1952-01-02,1015.0
1952-01-03,1072.0
1952-01-04,1115.0
1952-01-05,1058.0
1952-01-06,886.0
1952-01-07,994.0
1952-01-08,899.0
1952-01-09,977.0
1952-01-10,963.0
1952-01-11,960.0
1952-01-12,964.0
1952-01-13,965.0
1952-01-14,975.0
1952-01-15,941.0
1952-01-16,956.0
1952-01-17,1092.0
1952-01-18,1150.0
1952-01-19,1220.0
1952-01-20,1097.0
1952-01-21,1070.0
1952-01-22,1059.0
1952-01-23,1032.0
1952-01-24,1066.0
1952-01-25,1053.0
1952-01-26,1126.0
1952-01-27,1036.0
1952-01-28,1030.0
1952-01-29,1045.0
1952-01-30,1053.0
1952-01-31,1060.0
1952-02-01,1081.0
1952-02-02,1031.0
1952-02-03,1058.0
1952-02-04,1054.0
1952-02-05,1089.0
1952-02-06,1108.0
1952-02-07,1191.0
1952-02-08,1148.0
1952-02-09,1005.0
1952-02-10,1192.0
1952-02-11,1141.0
1952-02-12,1075.0
1952-02-13,1038.0
1952-02-14,955.0
1952-02-15,996.0
1952-02-16,1037.0
1952-02-17,1106.0
1952-02-18,1164.0
1952-02-19,1205.0
1952-02-20,1238.0
1952-02-21,1269.0
1952-02-22,1283.0
1952-02-23,1303.0
1952-02-24,1333.0
1952-02-25,1341.0
1952-02-26,1360.0
1952-02-27,1385.0
1952-02-28,1417.0
1952-02-29,1447.0
1952-03-01,1466.0
1952-03-02,1491.0
1952-03-03,1519.0
1952-03-04,1557.0
1952-03-05,1582.0
1952-03-06,1605.0
1952-03-07,1631.0
1952-03-08,1656.0
1952-03-09,1680.0
1952-03-10,1700.0
1952-03-11,1746.0
1952-03-12,1796.0
1952-03-13,1854.0
1952-03-14,1915.0
1952-03-15,1995.0
1952-03-16,2047.0
1952-03-17,2130.0
1952-03-18,2156.0
1952-03-19,2235.0
1952-03-20,2102.0
1952-03-21,2006.0
1952-03-22,2038.0
1952-03-23,2060.0
1952-03-24,2087.0
1952-03-25,2106.0
1952-03-26,2108.0
1952-03-27,1809.0
1952-03-28,1611.0
1952-03-29,1490.0
1952-03-30,1421.0
1952-03-31,1360.0
1952-04-01,1321.0
1952-04-02,1292.0
1952-04-03,1275.0
1952-04-04,1235.0
1952-04-05,1195.0
1952-04-06,1175.0
1952-04-07,1225.0
1952-04-08,1227.0
1952-04-09,1241.0
1952-04-10,1325.0
1952-04-11,1291.0
1952-04-12,1244.0
1952-04-13,1217.0
1952-04-14,1195.0
1952-04-15,1158.0
1952-04-16,1121.0
1952-04-17,1162.0
1952-04-18,1189.0
1952-04-19,1201.0
1952-04-20,1207.0
1952-04-21,1157.0
1952-04-22,1095.0
1952-04-23,1070.0
1952-04-24,1020.0
1952-04-25,995.0
1952-04-26,969.0
1952-04-27,925.0
1952-04-28,913.0
1952-04-29,889.0
1952-04-30,838.0
1952-05-01,790.0
1952-05-02,790.0
1952-05-03,820.0
1952-05-04,812.0
1952-05-05,976.0
1952-05-06,1186.0
1952-05-07,1353.0
1952-05-08,1431.0
1952-05-09,1365.0
1952-05-10,1407.0
1952-05-11,1458.0
1952-05-12,1519.0
1952-05-13,1498.0
1952-05-14,1511.0
1952-05-15,1563.0
1952-05-16,1565.0
1952-05-17,1561.0
1952-05-18,1586.0
1952-05-19,1653.0
1952-05-20,1702.0
1952-05-21,1781.0
1952-05-22,1823.0
1952-05-23,1859.0
1952-05-24,1847.0
1952-05-25,1829.0
1952-05-26,1820.0
1952-05-27,1829.0
1952-05-28,1886.0
1952-05-29,2012.0
1952-05-30,2123.0
1952-05-31,2174.0
1952-06-01,2143.0
1952-06-02,2093.0
1952-06-03,2067.0
1952-06-04,2050.0
1952-06-05,2106.0
1952-06-06,2223.0
1952-06-07,2166.0
1952-06-08,2158.0
1952-06-09,2288.0
1952-06-10,2313.0
1952-06-11,2350.0
1952-06-12,2376.0
1952-06-13,2451.0
1952-06-14,2481.0
1952-06-15,2514.0
1952-06-16,2535.0
1952-06-17,2526.0
1952-06-18,2510.0
1952-06-19,2514.0
1952-06-20,2483.0
1952-06-21,2467.0
1952-06-22,2442.0
1952-06-23,2434.0
1952-06-24,2437.0
1952-06-25,2409.0
1952-06-26,2409.0
1952-06-27,2390.0
1952-06-28,2381.0
1952-06-29,2372.0
1952-06-30,2407.0
1952-07-01,2379.0
1952-07-02,2400.0
1952-07-03,2425.0
1952-07-04,2449.0
1952-07-05,2485.0
1952-07-06,2510.0
1952-07-07,2532.0
1952-07-08,2499.0
1952-07-09,2533.0
1952-07-10,2541.0
1952-07-11,2510.0
1952-07-12,2487.0
1952-07-13,2467.0
1952-07-14,2444.0
1952-07-15,2508.0
1952-07-16,2465.0
1952-07-17,2508.0
1952-07-18,2501.0
1952-07-19,2462.0
1952-07-20,2405.0
1952-07-21,2407.0
1952-07-22,2296.0
1952-07-23,2232.0
1952-07-24,2262.0
1952-07-25,2332.0
1952-07-26,2353.0
1952-07-27,2277.0
1952-07-28,2281.0
1952-07-29,2286.0
1952-07-30,2265.0
1952-07-31,2258.0
1952-08-01,2707.0
1952-08-02,2741.0
1952-08-03,2760.0
1952-08-04,2769.0
1952-08-05,2652.0
1952-08-06,2707.0
1952-08-07,2739.0
1952-08-08,2712.0
1952-08-09,2751.0
1952-08-10,2783.0
1952-08-11,2900.0
1952-08-12,2921.0
1952-08-13,2955.0
1952-08-14,2932.0
1952-08-15,2986.0
1952-08-16,2954.0
1952-08-17,2900.0
1952-08-18,2932.0
1952-08-19,2896.0
1952-08-20,2813.0
1952-08-21,2848.0
1952-08-22,2928.0
1952-08-23,2975.0
1952-08-24,2995.0
1952-08-25,2955.0
1952-08-26,2981.0
1952-08-27,2982.0
1952-08-28,2995.0
1952-08-29,2959.0
1952-08-30,2964.0
1952-08-31,2959.0
1952-09-01,2829.0
1952-09-02,2717.0
1952-09-03,2600.0
1952-09-04,2506.0
1952-09-05,2356.0
1952-09-06,2327.0
1952-09-07,2308.0
1952-09-08,2367.0
1952-09-09,2284.0
1952-09-10,2332.0
1952-09-11,2553.0
1952-09-12,2781.0
1952-09-13,2986.0
1952-09-14,2919.0
1952-09-15,2846.0
1952-09-16,2778.0
1952-09-17,2703.0
1952-09-18,2627.0
1952-09-19,2535.0
1952-09-20,2443.0
1952-09-21,2358.0
1952-09-22,2290.0
1952-09-23,2170.0
1952-09-24,2107.0
1952-09-25,2047.0
1952-09-26,1619.0
1952-09-27,1237.0
1952-09-28,1141.0
1952-09-29,1051.0
1952-09-30,1311.0
1952-10-01,1629.0
1952-10-02,1936.0
1952-10-03,1931.0
1952-10-04,1836.0
1952-10-05,1736.0
1952-10-06,1680.0
1952-10-07,1745.0
1952-10-08,1680.0
1952-10-09,1651.0
1952-10-10,1626.0
1952-10-11,1584.0
1952-10-12,1543.0
1952-10-13,1554.0
1952-10-14,1546.0
1952-10-15,1506.0
1952-10-16,1475.0
1952-10-17,1439.0
1952-10-18,1394.0
1952-10-19,1346.0
1952-10-20,1348.0
1952-10-21,1363.0
1952-10-22,1359.0
1952-10-23,1353.0
1952-10-24,1440.0
1952-10-25,1455.0
1952-10-26,1424.0
1952-10-27,1474.0
1952-10-28,1676.0
1952-10-29,1890.0
1952-10-30,1956.0
1952-10-31,2196.0
1952-11-01,2226.0
1952-11-02,2251.0
1952-11-03,2311.0
1952-11-04,2362.0
1952-11-05,2412.0
1952-11-06,2468.0
1952-11-07,2508.0
1952-11-08,2525.0
1952-11-09,2541.0
1952-11-10,2593.0
1952-11-11,2608.0
1952-11-12,2683.0
1952-11-13,2652.0
1952-11-14,2615.0
1952-11-15,2588.0
1952-11-16,2562.0
1952-11-17,2596.0
1952-11-18,2499.0
1952-11-19,2174.0
1952-11-20,1846.0
1952-11-21,1819.0
1952-11-22,1932.0
1952-11-23,2132.0
1952-11-24,1891.0
1952-11-25,1900.0
1952-11-26,1870.0
1952-11-27,1670.0
1952-11-28,1666.0
1952-11-29,2351.0
1952-11-30,2692.0
1952-12-01,2806.0
1952-12-02,2964.0
1952-12-03,2941.0
1952-12-04,2910.0
1952-12-05,2887.0
1952-12-06,2900.0
1952-12-07,2774.0
1952-12-08,2909.0
1952-12-09,2955.0
1952-12-10,2977.0
1952-12-11,2982.0
1952-12-12,2963.0
1952-12-13,2934.0
1952-12-14,2746.0
1952-12-15,2788.0
1952-12-16,2816.0
1952-12-17,2783.0
1952-12-18,2804.0
1952-12-19,2823.0
1952-12-20,2669.0
1952-12-21,2842.0
1952-12-22,2871.0
1952-12-23,2837.0
1952-12-24,2864.0
1952-12-25,2851.0
1952-12-26,2871.0
1952-12-27,2804.0
1952-12-28,2865.0
1952-12-29,2876.0
1952-12-30,2856.0
1952-12-31,2856.0
1953-01-01,2841.0
1953-01-02,2855.0
1953-01-03,2873.0
1953-01-04,2869.0
1953-01-05,2851.0
1953-01-06,2867.0
1953-01-07,2814.0
1953-01-08,2851.0
1953-01-09,2820.0
1953-01-10,2860.0
1953-01-11,2894.0
1953-01-12,2820.0
1953-01-13,2806.0
1953-01-14,2846.0
1953-01-15,2814.0
1953-01-16,2818.0
1953-01-17,2836.0
1953-01-18,2820.0
1953-01-19,2842.0
1953-01-20,2820.0
1953-01-21,2792.0
1953-01-22,2794.0
1953-01-23,2804.0
1953-01-24,2806.0
1953-01-25,2795.0
1953-01-26,2830.0
1953-01-27,2820.0
1953-01-28,2860.0
1953-01-29,2848.0
1953-01-30,2842.0
1953-01-31,2388.0
1953-02-01,1833.0
1953-02-02,1668.0
1953-02-03,1695.0
1953-02-04,1711.0
1953-02-05,1692.0
1953-02-06,1794.0
1953-02-07,1924.0
1953-02-08,1877.0
1953-02-09,1884.0
1953-02-10,1865.0
1953-02-11,1893.0
1953-02-12,1899.0
1953-02-13,2074.0
1953-02-14,2050.0
1953-02-15,1904.0
1953-02-16,1964.0
1953-02-17,2104.0
1953-02-18,1828.0
1953-02-19,1887.0
1953-02-20,1928.0
1953-02-21,1832.0
1953-02-22,1674.0
1953-02-23,1705.0
1953-02-24,1798.0
1953-02-25,1823.0
1953-02-26,1860.0
1953-02-27,1814.0
1953-02-28,1853.0
1953-03-01,1791.0
1953-03-02,1814.0
1953-03-03,1918.0
1953-03-04,1778.0
1953-03-05,1872.0
1953-03-06,1890.0
1953-03-07,1854.0
1953-03-08,1868.0
1953-03-09,1840.0
1953-03-10,1911.0
1953-03-11,2004.0
1953-03-12,2064.0
1953-03-13,2056.0
1953-03-14,1873.0
1953-03-15,1695.0
1953-03-16,1786.0
1953-03-17,1807.0
1953-03-18,1803.0
1953-03-19,1861.0
1953-03-20,1876.0
1953-03-21,1767.0
1953-03-22,1614.0
1953-03-23,1600.0
1953-03-24,1613.0
1953-03-25,1697.0
1953-03-26,1755.0
1953-03-27,1823.0
1953-03-28,1729.0
1953-03-29,1554.0
1953-03-30,1494.0
1953-03-31,1443.0
1953-04-01,1532.0
1953-04-02,1603.0
1953-04-03,1753.0
1953-04-04,1777.0
1953-04-05,1590.0
1953-04-06,1629.0
1953-04-07,1710.0
1953-04-08,1836.0
1953-04-09,1939.0
1953-04-10,1983.0
1953-04-11,1987.0
1953-04-12,1795.0
1953-04-13,1938.0
1953-04-14,2074.0
1953-04-15,1999.0
1953-04-16,1990.0
1953-04-17,1918.0
1953-04-18,1763.0
1953-04-19,1596.0
1953-04-20,1618.0
1953-04-21,1651.0
1953-04-22,1688.0
1953-04-23,1734.0
1953-04-24,1772.0
1953-04-25,1800.0
1953-04-26,1845.0
1953-04-27,1876.0
1953-04-28,1895.0
1953-04-29,1913.0
1953-04-30,1922.0
1953-05-01,1935.0
1953-05-02,1949.0
1953-05-03,1964.0
1953-05-04,2109.0
1953-05-05,2247.0
1953-05-06,2394.0
1953-05-07,2351.0
1953-05-08,2370.0
1953-05-09,2359.0
1953-05-10,2366.0
1953-05-11,2587.0
1953-05-12,2548.0
1953-05-13,2553.0
1953-05-14,2545.0
1953-05-15,2563.0
1953-05-16,2582.0
1953-05-17,2593.0
1953-05-18,2565.0
1953-05-19,2543.0
1953-05-20,2527.0
1953-05-21,2525.0
1953-05-22,2546.0
1953-05-23,2563.0
1953-05-24,2582.0
1953-05-25,2627.0
1953-05-26,2577.0
1953-05-27,2463.0
1953-05-28,2109.0
1953-05-29,2178.0
1953-05-30,2247.0
1953-05-31,2338.0
1953-06-01,2377.0
1953-06-02,2281.0
1953-06-03,2268.0
1953-06-04,2234.0
1953-06-05,2175.0
1953-06-06,2139.0
1953-06-07,2115.0
1953-06-08,2439.0
1953-06-09,2574.0
1953-06-10,2726.0
1953-06-11,2900.0
1953-06-12,2919.0
1953-06-13,2844.0
1953-06-14,2766.0
1953-06-15,2844.0
1953-06-16,2963.0
1953-06-17,2959.0
1953-06-18,2964.0
1953-06-19,2928.0
1953-06-20,2869.0
1953-06-21,2832.0
1953-06-22,2743.0
1953-06-23,2659.0
1953-06-24,2678.0
1953-06-25,2693.0
1953-06-26,2702.0
1953-06-27,2806.0
1953-06-28,2774.0
1953-06-29,2783.0
1953-06-30,2829.0
1953-07-01,2801.0
1953-07-02,2762.0
1953-07-03,2891.0
1953-07-04,3000.0
1953-07-05,2968.0
1953-07-06,2883.0
1953-07-07,2869.0
1953-07-08,2878.0
1953-07-09,2874.0
1953-07-10,2772.0
1953-07-11,2697.0
1953-07-12,2700.0
1953-07-13,2680.0
1953-07-14,2715.0
1953-07-15,2760.0
1953-07-16,2778.0
1953-07-17,2878.0
1953-07-18,2880.0
1953-07-19,2894.0
1953-07-20,2961.0
1953-07-21,2909.0
1953-07-22,2939.0
1953-07-23,2874.0
1953-07-24,2910.0
1953-07-25,2945.0
1953-07-26,2977.0
1953-07-27,2955.0
1953-07-28,2961.0
1953-07-29,2937.0
1953-07-30,2795.0
1953-07-31,2769.0
1953-08-01,2799.0
1953-08-02,2732.0
1953-08-03,2750.0
1953-08-04,2814.0
1953-08-05,2937.0
1953-08-06,3000.0
1953-08-07,2997.0
1953-08-08,3002.0
1953-08-09,2862.0
1953-08-10,2901.0
1953-08-11,2919.0
1953-08-12,2950.0
1953-08-13,2919.0
1953-08-14,2914.0
1953-08-15,3002.0
1953-08-16,2905.0
1953-08-17,2905.0
1953-08-18,2943.0
1953-08-19,2930.0
1953-08-20,2856.0
1953-08-21,2844.0
1953-08-22,2887.0
1953-08-23,2834.0
1953-08-24,2783.0
1953-08-25,2764.0
1953-08-26,2772.0
1953-08-27,2813.0
1953-08-28,2766.0
1953-08-29,2968.0
1953-08-30,2900.0
1953-08-31,2865.0
1953-09-01,2882.0
1953-09-02,2910.0
1953-09-03,2923.0
1953-09-04,2943.0
1953-09-05,2858.0
1953-09-06,2973.0
1953-09-07,2937.0
1953-09-08,2883.0
1953-09-09,2825.0
1953-09-10,2930.0
1953-09-11,2918.0
1953-09-12,2883.0
1953-09-13,2837.0
1953-09-14,2901.0
1953-09-15,2891.0
1953-09-16,2905.0
1953-09-17,2818.0
1953-09-18,2820.0
1953-09-19,2887.0
1953-09-20,2918.0
1953-09-21,2827.0
1953-09-22,2905.0
1953-09-23,2905.0
1953-09-24,2883.0
1953-09-25,2871.0
1953-09-26,2867.0
1953-09-27,2736.0
1953-09-28,2825.0
1953-09-29,2827.0
1953-09-30,2823.0
1953-10-01,2802.0
1953-10-02,2751.0
1953-10-03,2874.0
1953-10-04,2839.0
1953-10-05,2882.0
1953-10-06,2842.0
1953-10-07,2914.0
1953-10-08,2907.0
1953-10-09,2909.0
1953-10-10,2912.0
1953-10-11,2772.0
1953-10-12,2746.0
1953-10-13,2762.0
1953-10-14,2802.0
1953-10-15,2771.0
1953-10-16,2769.0
1953-10-17,2697.0
1953-10-18,2774.0
1953-10-19,2830.0
1953-10-20,2792.0
1953-10-21,2785.0
1953-10-22,2832.0
1953-10-23,2858.0
1953-10-24,2834.0
1953-10-25,2807.0
1953-10-26,2864.0
1953-10-27,2916.0
1953-10-28,2916.0
1953-10-29,2862.0
1953-10-30,2806.0
1953-10-31,2807.0
1953-11-01,2774.0
1953-11-02,2825.0
1953-11-03,2966.0
1953-11-04,2900.0
1953-11-05,2862.0
1953-11-06,2844.0
1953-11-07,2864.0
1953-11-08,2876.0
1953-11-09,2894.0
1953-11-10,2916.0
1953-11-11,2871.0
1953-11-12,2807.0
1953-11-13,2855.0
1953-11-14,2842.0
1953-11-15,2683.0
1953-11-16,2834.0
1953-11-17,3077.0
1953-11-18,2851.0
1953-11-19,2764.0
1953-11-20,2647.0
1953-11-21,2635.0
1953-11-22,2639.0
1953-11-23,2641.0
1953-11-24,2646.0
1953-11-25,2649.0
1953-11-26,2637.0
1953-11-27,2663.0
1953-11-28,2658.0
1953-11-29,2654.0
1953-11-30,2658.0
1953-12-01,2666.0
1953-12-02,2654.0
1953-12-03,2635.0
1953-12-04,2639.0
1953-12-05,2637.0
1953-12-06,2630.0
1953-12-07,2634.0
1953-12-08,2625.0
1953-12-09,2635.0
1953-12-10,2632.0
1953-12-11,2620.0
1953-12-12,2646.0
1953-12-13,2629.0
1953-12-14,2692.0
1953-12-15,2799.0
1953-12-16,2797.0
1953-12-17,2709.0
1953-12-18,2527.0
1953-12-19,2056.0
1953-12-20,1206.0
1953-12-21,1268.0
1953-12-22,1626.0
1953-12-23,2092.0
1953-12-24,2440.0
1953-12-25,2583.0
1953-12-26,2646.0
1953-12-27,2675.0
1953-12-28,2644.0
1953-12-29,2719.0
1953-12-30,2603.0
1953-12-31,2661.0
1954-01-01,2630.0
1954-01-02,2634.0
1954-01-03,2641.0
1954-01-04,2644.0
1954-01-05,2580.0
1954-01-06,2598.0
1954-01-07,2608.0
1954-01-08,2630.0
1954-01-09,2671.0
1954-01-10,2799.0
1954-01-11,2652.0
1954-01-12,2663.0
1954-01-13,2680.0
1954-01-14,2668.0
1954-01-15,2757.0
1954-01-16,2767.0
1954-01-17,2150.0
1954-01-18,2229.0
1954-01-19,2550.0
1954-01-20,2943.0
1954-01-21,2820.0
1954-01-22,3006.0
1954-01-23,2781.0
1954-01-24,2458.0
1954-01-25,3004.0
1954-01-26,2950.0
1954-01-27,2748.0
1954-01-28,2610.0
1954-01-29,2837.0
1954-01-30,2641.0
1954-01-31,2340.0
1954-02-01,2027.0
1954-02-02,2442.0
1954-02-03,2710.0
1954-02-04,2776.0
1954-02-05,2923.0
1954-02-06,2688.0
1954-02-07,2570.0
1954-02-08,2729.0
1954-02-09,2345.0
1954-02-10,2587.0
1954-02-11,2676.0
1954-02-12,2642.0
1954-02-13,2669.0
1954-02-14,2652.0
1954-02-15,2448.0
1954-02-16,2289.0
1954-02-17,2232.0
1954-02-18,1932.0
1954-02-19,2685.0
1954-02-20,2637.0
1954-02-21,2535.0
1954-02-22,2652.0
1954-02-23,2797.0
1954-02-24,2813.0
1954-02-25,2827.0
1954-02-26,2809.0
1954-02-27,2772.0
1954-02-28,2647.0
1954-03-01,2825.0
1954-03-02,2615.0
1954-03-03,2750.0
1954-03-04,2774.0
1954-03-05,2869.0
1954-03-06,2736.0
1954-03-07,2760.0
1954-03-08,2771.0
1954-03-09,2806.0
1954-03-10,2776.0
1954-03-11,2724.0
1954-03-12,2703.0
1954-03-13,2724.0
1954-03-14,2649.0
1954-03-15,2649.0
1954-03-16,2683.0
1954-03-17,2664.0
1954-03-18,2676.0
1954-03-19,2678.0
1954-03-20,2743.0
1954-03-21,2719.0
1954-03-22,2739.0
1954-03-23,2813.0
1954-03-24,2807.0
1954-03-25,2829.0
1954-03-26,2830.0
1954-03-27,2894.0
1954-03-28,2851.0
1954-03-29,2839.0
1954-03-30,2524.0
1954-03-31,2097.0
1954-04-01,2260.0
1954-04-02,2330.0
1954-04-03,2370.0
1954-04-04,2391.0
1954-04-05,2090.0
1954-04-06,2163.0
1954-04-07,2496.0
1954-04-08,2517.0
1954-04-09,2750.0
1954-04-10,2788.0
1954-04-11,2627.0
1954-04-12,2603.0
1954-04-13,2641.0
1954-04-14,2535.0
1954-04-15,2600.0
1954-04-16,2680.0
1954-04-17,2675.0
1954-04-18,2607.0
1954-04-19,2688.0
1954-04-20,2587.0
1954-04-21,2603.0
1954-04-22,2658.0
1954-04-23,2685.0
1954-04-24,2690.0
1954-04-25,2627.0
1954-04-26,2712.0
1954-04-27,2695.0
1954-04-28,2781.0
1954-04-29,2771.0
1954-04-30,2695.0
1954-05-01,2675.0
1954-05-02,2685.0
1954-05-03,2567.0
1954-05-04,2766.0
1954-05-05,2778.0
1954-05-06,2774.0
1954-05-07,2799.0
1954-05-08,2916.0
1954-05-09,2548.0
1954-05-10,2856.0
1954-05-11,2829.0
1954-05-12,2825.0
1954-05-13,2809.0
1954-05-14,2795.0
1954-05-15,2921.0
1954-05-16,2948.0
1954-05-17,2887.0
1954-05-18,2814.0
1954-05-19,2772.0
1954-05-20,2797.0
1954-05-21,2778.0
1954-05-22,2743.0
1954-05-23,2683.0
1954-05-24,2703.0
1954-05-25,2664.0
1954-05-26,2705.0
1954-05-27,2712.0
1954-05-28,2737.0
1954-05-29,2698.0
1954-05-30,2671.0
1954-05-31,2635.0
1954-06-01,2753.0
1954-06-02,2781.0
1954-06-03,2792.0
1954-06-04,2873.0
1954-06-05,2869.0
1954-06-06,2860.0
1954-06-07,2896.0
1954-06-08,2957.0
1954-06-09,2963.0
1954-06-10,2977.0
1954-06-11,2975.0
1954-06-12,2961.0
1954-06-13,2914.0
1954-06-14,2855.0
1954-06-15,2851.0
1954-06-16,2846.0
1954-06-17,2813.0
1954-06-18,2830.0
1954-06-19,2851.0
1954-06-20,2855.0
1954-06-21,2842.0
1954-06-22,2734.0
1954-06-23,2748.0
1954-06-24,2786.0
1954-06-25,2795.0
1954-06-26,2829.0
1954-06-27,2801.0
1954-06-28,2916.0
1954-06-29,2923.0
1954-06-30,2918.0
1954-07-01,2813.0
1954-07-02,2836.0
1954-07-03,2830.0
1954-07-04,2698.0
1954-07-05,2680.0
1954-07-06,2712.0
1954-07-07,2709.0
1954-07-08,2737.0
1954-07-09,2719.0
1954-07-10,2736.0
1954-07-11,2683.0
1954-07-12,2966.0
1954-07-13,2936.0
1954-07-14,2891.0
1954-07-15,2907.0
1954-07-16,2896.0
1954-07-17,2923.0
1954-07-18,2898.0
1954-07-19,2830.0
1954-07-20,2630.0
1954-07-21,2871.0
1954-07-22,3017.0
1954-07-23,2919.0
1954-07-24,2955.0
1954-07-25,2887.0
1954-07-26,2900.0
1954-07-27,3041.0
1954-07-28,3039.0
1954-07-29,3059.0
1954-07-30,3008.0
1954-07-31,2968.0
1954-08-01,2821.0
1954-08-02,2986.0
1954-08-03,2919.0
1954-08-04,2871.0
1954-08-05,2901.0
1954-08-06,2964.0
1954-08-07,3018.0
1954-08-08,2972.0
1954-08-09,2979.0
1954-08-10,2918.0
1954-08-11,2986.0
1954-08-12,2860.0
1954-08-13,2903.0
1954-08-14,2963.0
1954-08-15,2836.0
1954-08-16,2814.0
1954-08-17,2795.0
1954-08-18,2743.0
1954-08-19,2727.0
1954-08-20,2700.0
1954-08-21,2705.0
1954-08-22,2720.0
1954-08-23,2743.0
1954-08-24,2981.0
1954-08-25,2932.0
1954-08-26,2858.0
1954-08-27,2834.0
1954-08-28,2746.0
1954-08-29,2729.0
1954-08-30,2736.0
1954-08-31,2695.0
1954-09-01,2719.0
1954-09-02,2729.0
1954-09-03,2722.0
1954-09-04,2767.0
1954-09-05,2748.0
1954-09-06,2767.0
1954-09-07,2720.0
1954-09-08,2743.0
1954-09-09,2726.0
1954-09-10,2720.0
1954-09-11,2753.0
1954-09-12,2734.0
1954-09-13,2772.0
1954-09-14,2801.0
1954-09-15,2720.0
1954-09-16,2855.0
1954-09-17,2841.0
1954-09-18,2732.0
1954-09-19,2764.0
1954-09-20,2865.0
1954-09-21,2860.0
1954-09-22,2876.0
1954-09-23,2844.0
1954-09-24,2871.0
1954-09-25,3006.0
1954-09-26,2867.0
1954-09-27,2883.0
1954-09-28,2894.0
1954-09-29,2891.0
1954-09-30,3006.0
1954-10-01,3008.0
1954-10-02,2968.0
1954-10-03,2986.0
1954-10-04,2851.0
1954-10-05,2659.0
1954-10-06,2615.0
1954-10-07,2546.0
1954-10-08,2568.0
1954-10-09,2575.0
1954-10-10,2661.0
1954-10-11,2610.0
1954-10-12,2511.0
1954-10-13,2605.0
1954-10-14,2753.0
1954-10-15,2744.0
1954-10-16,2654.0
1954-10-17,2695.0
1954-10-18,2589.0
1954-10-19,2579.0
1954-10-20,2593.0
1954-10-21,2627.0
1954-10-22,2635.0
1954-10-23,2846.0
1954-10-24,2844.0
1954-10-25,2825.0
1954-10-26,2764.0
1954-10-27,2750.0
1954-10-28,2712.0
1954-10-29,2712.0
1954-10-30,2709.0
1954-10-31,2627.0
1954-11-01,2617.0
1954-11-02,2340.0
1954-11-03,2618.0
1954-11-04,2736.0
1954-11-05,2585.0
1954-11-06,2692.0
1954-11-07,2685.0
1954-11-08,2712.0
1954-11-09,2739.0
1954-11-10,2729.0
1954-11-11,2794.0
1954-11-12,2720.0
1954-11-13,2717.0
1954-11-14,2666.0
1954-11-15,2719.0
1954-11-16,2673.0
1954-11-17,2622.0
1954-11-18,2613.0
1954-11-19,2598.0
1954-11-20,2681.0
1954-11-21,2629.0
1954-11-22,2639.0
1954-11-23,2715.0
1954-11-24,2690.0